GW5785 Weather Reports


time (UTC)temp
C
wind
direction
speed
KPH
gust
KPH
rain 1hr
cm
rain 24hr
cm
rain mn
cm
humidity
%
barometer
mb
20260506070531 3 204 0.0 0.0 0.00 0.08 0.08 76 1005.5
20260506062508 3 282 0.0 0.0 0.00 0.08 0.08 81 1004.9
20260506062005 3 252 0.0 0.0 0.00 0.08 0.08 81 1005.1
20260506061500 3 199 0.0 0.0 0.00 0.08 0.08 81 1005.1
20260506060958 3 199 0.0 0.0 0.00 0.08 0.08 83 1005.1
20260506060457 3 211 0.0 0.0 0.00 0.08 0.08 84 1004.8
20260506050925 4 122 0.0 0.0 0.00 0.08 0.08 80 1004.6
20260506050423 3 82 0.0 0.0 0.00 0.08 0.08 80 1004.4
20260506044913 2 52 0.0 0.0 0.00 0.08 0.08 92 1004.6
20260506044412 2 52 0.0 0.0 0.00 0.08 0.08 93 1004.6
20260506043908 1 52 0.0 0.0 0.00 0.08 0.08 94 1004.5
20260506043406 1 52 0.0 0.0 0.00 0.08 0.08 94 1004.4
20260506042904 1 52 0.0 0.0 0.00 0.08 0.08 94 1004.5
20260506042403 1 52 0.0 0.0 0.00 0.08 0.08 94 1004.4
20260506041900 2 52 0.0 0.0 0.00 0.08 0.08 95 1004.4
20260506041357 1 52 0.0 0.0 0.00 0.08 0.08 95 1004.3
20260506040855 1 52 0.0 1.6 0.00 0.08 0.08 95 1004.2
20260506040352 1 345 0.0 0.0 0.00 0.08 0.08 95 1004.0
20260506035848 1 0 0.0 1.6 0.00 0.08 0.08 95 1004.1
20260506035345 0 53 3.2 3.2 0.00 0.08 0.08 95 1004.1
20260506034843 0 24 3.2 3.2 0.00 0.08 0.08 95 1004.3
20260506034340 1 32 0.0 0.0 0.00 0.08 0.08 95 1004.0
20260506033836 1 311 0.0 0.0 0.00 0.08 0.08 95 1004.0
20260506033334 0 327 0.0 0.0 0.00 0.08 0.08 95 1003.9
20260506032830 1 345 0.0 0.0 0.00 0.08 0.08 95 1003.9
20260506032327 1 30 0.0 0.0 0.00 0.08 0.08 95 1003.9
20260506031824 1 11 0.0 0.0 0.00 0.08 0.08 95 1003.8
20260506031322 1 321 0.0 0.0 0.00 0.08 0.08 95 1003.9
20260506030819 1 305 0.0 0.0 0.00 0.08 0.08 95 1003.8
20260506030317 1 305 0.0 0.0 0.00 0.08 0.08 95 1003.7
20260506025814 1 299 0.0 0.0 0.00 0.08 0.08 95 1003.7
20260506025310 1 290 0.0 0.0 0.00 0.08 0.08 95 1003.6
20260506024807 1 19 0.0 0.0 0.00 0.08 0.08 95 1003.6
20260506024304 1 71 3.2 4.8 0.00 0.08 0.08 95 1003.4
20260506023800 1 64 3.2 3.2 0.00 0.08 0.08 95 1003.6
20260506023257 1 65 3.2 3.2 0.00 0.08 0.08 95 1003.6
20260506022753 1 54 0.0 0.0 0.00 0.08 0.08 95 1003.5
20260506022252 1 61 0.0 0.0 0.00 0.08 0.08 95 1003.5
20260506021749 1 48 1.6 3.2 0.00 0.08 0.08 95 1003.3
20260506021246 1 45 1.6 1.6 0.00 0.08 0.08 95 1003.4
20260506020743 1 28 0.0 0.0 0.00 0.08 0.08 95 1003.4
20260506020241 1 341 0.0 1.6 0.00 0.08 0.08 95 1003.3
20260506015738 1 354 1.6 3.2 0.00 0.08 0.08 95 1003.3
20260506015235 1 22 1.6 3.2 0.00 0.08 0.08 95 1003.2
20260506014732 1 71 3.2 3.2 0.00 0.08 0.08 94 1003.2
20260506014228 1 55 0.0 0.0 0.00 0.08 0.08 94 1003.4
20260506013726 1 25 0.0 0.0 0.00 0.08 0.08 94 1003.4
20260506013223 1 24 0.0 0.0 0.00 0.08 0.08 94 1003.1
20260506012719 1 61 0.0 0.0 0.00 0.08 0.08 94 1003.2
20260506012216 1 39 0.0 0.0 0.00 0.08 0.08 94 1003.1
20260506011713 1 39 0.0 0.0 0.00 0.08 0.08 94 1003.1
20260506011209 1 39 0.0 1.6 0.00 0.08 0.08 94 1003.2
20260506010708 1 15 1.6 1.6 0.00 0.08 0.08 94 1003.0
20260506010205 1 19 1.6 3.2 0.00 0.08 0.08 94 1003.0
20260506005702 1 2 1.6 3.2 0.00 0.08 0.08 94 1003.1
20260506005159 1 315 0.0 0.0 0.00 0.08 0.08 93 1003.0
20260506004655 1 341 3.2 3.2 0.00 0.08 0.08 93 1002.8
20260506004152 1 355 0.0 0.0 0.00 0.08 0.08 93 1002.9
20260506003648 1 13 0.0 0.0 0.00 0.08 0.08 93 1002.9
20260506003145 1 340 0.0 0.0 0.00 0.08 0.08 93 1002.8
20260506002641 1 35 0.0 0.0 0.00 0.08 0.08 93 1003.1
20260506002137 1 26 0.0 0.0 0.00 0.08 0.08 93 1002.8
20260506001633 1 355 0.0 0.0 0.13 0.08 0.08 93 1002.9
20260506001131 1 44 1.6 3.2 0.00 0.05 0.05 93 1002.7
20260506000628 1 72 1.6 4.8 0.18 0.05 0.05 93 1002.8
20260506000125 1 43 1.6 3.2 0.18 0.05 0.05 93 1002.9
20260505235623 1 302 1.6 4.8 0.00 0.03 0.03 93 1002.8
20260505235120 1 343 1.6 3.2 0.00 0.03 0.03 93 1002.8
20260505234617 1 8 1.6 3.2 0.00 0.03 0.03 93 1002.6
20260505234113 1 340 1.6 3.2 0.00 0.03 0.03 93 1002.7
20260505233611 1 339 1.6 3.2 0.00 0.03 0.03 93 1002.7
20260505233108 2 335 3.2 3.2 0.13 0.03 0.03 93 1002.5
20260505232606 2 341 1.6 1.6 0.00 0.00 0.00 93 1002.7
20260505232103 1 16 0.0 3.2 0.00 0.00 0.00 93 1002.6
20260505231600 2 76 3.2 4.8 0.00 0.00 0.00 93 1002.5
20260505231059 2 79 0.0 0.0 0.00 0.00 0.00 92 1002.5
20260505230556 2 66 1.6 1.6 0.00 0.00 0.00 92 1002.5
20260505230052 2 87 1.6 3.2 0.00 0.00 0.00 92 1002.5
20260505225549 2 45 1.6 3.2 0.00 0.00 0.00 91 1002.5
20260505225045 2 27 0.0 0.0 0.00 0.00 0.00 91 1002.5
20260505224542 2 9 0.0 0.0 0.00 0.00 0.00 91 1002.4
20260505224039 2 35 0.0 0.0 0.00 0.00 0.00 90 1002.5
20260505223536 2 340 1.6 3.2 0.00 0.00 0.00 90 1002.3
20260505223032 2 309 3.2 3.2 0.00 0.00 0.00 90 1002.4
20260505222529 2 39 3.2 4.8 0.00 0.00 0.00 89 1002.4
20260505222025 2 25 3.2 3.2 0.00 0.00 0.00 89 1002.3
20260505221523 2 14 3.2 3.2 0.00 0.00 0.00 88 1002.1
20260505221019 2 354 3.2 3.2 0.00 0.00 0.00 88 1002.2
20260505220516 2 285 3.2 3.2 0.00 0.00 0.00 87 1002.3
20260505220014 3 316 0.0 0.0 0.00 0.00 0.00 87 1002.1
20260505215512 3 227 0.0 0.0 0.00 0.38 0.38 86 1002.1
20260505215009 3 260 1.6 4.8 0.00 0.38 0.38 86 1002.1
20260505214508 3 266 4.8 6.4 0.00 0.38 0.38 85 1002.1
20260505214004 3 230 3.2 3.2 0.00 0.38 0.38 85 1002.0
20260505213502 3 290 3.2 4.8 0.00 0.38 0.38 84 1002.0
20260505212958 3 251 3.2 3.2 0.00 0.38 0.38 84 1002.0
20260505212454 3 236 1.6 3.2 0.00 0.38 0.38 83 1002.0
20260505211951 3 326 0.0 4.8 0.00 0.38 0.38 81 1001.9
20260505211449 3 239 1.6 6.4 0.00 0.38 0.38 82 1002.0
20260505210945 3 338 1.6 6.4 0.00 0.38 0.38 80 1002.1
20260505210442 3 240 3.2 6.4 0.00 0.38 0.38 79 1001.9
20260505205939 3 131 6.4 9.7 0.00 0.38 0.38 78 1001.9
20260505205437 3 127 4.8 6.4 0.00 0.38 0.38 78 1001.9
20260505204933 3 142 1.6 4.8 0.00 0.38 0.38 78 1001.8
20260505204432 3 148 3.2 4.8 0.00 0.38 0.38 78 1001.5
20260505203929 3 134 4.8 9.7 0.00 0.38 0.38 79 1001.6
20260505203425 3 123 3.2 9.7 0.00 0.38 0.38 78 1001.6
20260505202921 3 80 4.8 6.4 0.00 0.38 0.38 79 1001.6
20260505202418 3 114 6.4 11.3 0.00 0.38 0.38 79 1001.5
20260505201914 3 94 3.2 9.7 0.00 0.38 0.38 79 1001.4
20260505201411 3 93 6.4 6.4 0.00 0.38 0.38 79 1001.5
20260505200910 3 120 6.4 11.3 0.00 0.38 0.38 78 1001.5
20260505200406 3 108 6.4 9.7 0.00 0.38 0.38 77 1001.4
20260505195902 3 124 6.4 9.7 0.00 0.38 0.38 76 1001.4
20260505195359 3 107 6.4 9.7 0.00 0.38 0.38 76 1001.4
20260505194856 3 94 4.8 11.3 0.00 0.38 0.38 75 1001.3
20260505194354 3 136 3.2 4.8 0.00 0.38 0.38 74 1001.3
20260505193854 3 99 3.2 4.8 0.00 0.38 0.38 75 1001.3
20260505193352 4 123 3.2 9.7 0.00 0.38 0.38 74 1001.3
20260505192849 4 109 3.2 4.8 0.00 0.38 0.38 73 1001.3
20260505192348 4 124 3.2 4.8 0.00 0.38 0.38 72 1001.3
20260505191845 4 113 0.0 4.8 0.00 0.38 0.38 73 1001.3
20260505191344 4 118 4.8 9.7 0.00 0.38 0.38 73 1001.2
20260505190840 4 97 0.0 1.6 0.00 0.38 0.38 72 1001.2
20260505190335 4 128 4.8 4.8 0.00 0.38 0.38 72 1001.1
20260505185831 4 122 1.6 3.2 0.00 0.38 0.38 72 1001.1
20260505185328 4 102 3.2 4.8 0.00 0.38 0.38 72 1001.2
20260505184824 4 119 0.0 1.6 0.00 0.38 0.38 72 1001.3
20260505184321 4 110 1.6 4.8 0.00 0.38 0.38 72 1001.0
20260505183818 5 125 6.4 9.7 0.00 0.38 0.38 70 1001.1
20260505183315 5 125 3.2 9.7 0.00 0.38 0.38 68 1001.0
20260505182812 5 147 3.2 4.8 0.00 0.38 0.38 68 1000.9
20260505182308 5 227 0.0 1.6 0.00 0.38 0.38 69 1001.0
20260505181805 5 103 3.2 3.2 0.00 0.38 0.38 68 1000.9
20260505181303 5 122 1.6 6.4 0.00 0.38 0.38 69 1000.9
20260505180759 5 105 4.8 4.8 0.00 0.38 0.38 72 1000.9
20260505180255 5 126 3.2 6.4 0.00 0.38 0.38 67 1000.9
20260505175752 5 238 0.0 9.7 0.00 0.38 0.38 68 1000.8
20260505175248 5 246 0.0 0.0 0.00 0.38 0.38 63 1000.6
20260505174745 5 238 1.6 3.2 0.00 0.38 0.38 63 1000.7
20260505174242 5 208 3.2 6.4 0.00 0.38 0.38 63 1000.9
20260505173738 5 249 1.6 3.2 0.00 0.38 0.38 64 1000.7
20260505173235 5 280 3.2 4.8 0.00 0.38 0.38 65 1000.5
20260505172732 5 277 1.6 4.8 0.00 0.38 0.38 64 1000.6
20260505172229 5 264 3.2 4.8 0.00 0.38 0.38 62 1000.7
20260505171729 5 305 3.2 4.8 0.00 0.38 0.38 63 1000.4
20260505171226 5 236 3.2 6.4 0.00 0.38 0.38 65 1000.5
20260505170723 6 244 1.6 3.2 0.00 0.38 0.38 64 1000.6
20260505170220 6 185 3.2 4.8 0.00 0.38 0.38 65 1000.5
20260505165715 6 292 3.2 6.4 0.00 0.38 0.38 63 1000.5
20260505165211 6 207 3.2 4.8 0.00 0.38 0.38 61 1000.3
20260505164707 6 258 4.8 6.4 0.00 0.38 0.38 62 1000.4
20260505164204 6 275 4.8 6.4 0.00 0.38 0.38 62 1000.4
20260505163702 6 246 3.2 4.8 0.00 0.38 0.38 60 1000.4
20260505163201 6 266 4.8 6.4 0.00 0.38 0.38 61 1000.4
20260505162658 6 285 3.2 6.4 0.00 0.38 0.38 61 1000.4
20260505162155 6 302 6.4 6.4 0.00 0.38 0.38 62 1000.3
20260505161651 6 286 3.2 6.4 0.00 0.38 0.38 62 1000.1
20260505161149 6 214 3.2 6.4 0.00 0.38 0.38 62 1000.2
20260505160647 6 248 4.8 6.4 0.00 0.38 0.38 62 1000.2
20260505160144 6 266 3.2 4.8 0.00 0.38 0.38 62 1000.0
20260505153123 6 224 4.8 6.4 0.00 0.38 0.38 63 999.8
20260505152620 6 259 3.2 4.8 0.00 0.38 0.38 65 1000.0
20260505152115 6 270 3.2 4.8 0.00 0.38 0.38 64 1000.0
20260505151611 6 288 3.2 4.8 0.00 0.38 0.38 62 1000.1
20260505151109 6 282 3.2 6.4 0.00 0.38 0.38 63 1000.0
20260505150605 7 269 4.8 4.8 0.00 0.38 0.38 61 999.9
20260505140530 7 276 3.2 6.4 0.00 0.38 0.38 63 999.5
20260505124943 7 234 4.8 12.9 0.00 0.38 0.38 66 999.1
20260505124440 7 268 6.4 11.3 0.00 0.38 0.38 67 999.1
20260505123936 7 269 6.4 12.9 0.00 0.38 0.38 67 998.9
20260505123433 7 295 6.4 11.3 0.00 0.38 0.38 65 999.0
20260505122929 7 257 6.4 9.7 0.00 0.38 0.38 64 998.9
20260505122427 6 256 6.4 9.7 0.00 0.38 0.38 65 998.9
20260505121923 7 264 4.8 6.4 0.00 0.38 0.38 68 998.9
20260505121420 7 239 3.2 6.4 0.00 0.38 0.38 68 998.9
20260505120916 6 247 3.2 4.8 0.00 0.38 0.38 70 998.7
20260505120413 6 267 4.8 6.4 0.00 0.38 0.38 71 998.9
20260505115912 6 195 4.8 6.4 0.00 0.38 0.38 72 998.8
20260505115408 5 253 3.2 11.3 0.00 0.38 0.38 74 998.8
20260505114907 6 284 3.2 4.8 0.00 0.38 0.38 73 998.8
20260505114402 5 304 3.2 6.4 0.00 0.38 0.38 73 998.8
20260505113859 5 312 3.2 9.7 0.00 0.38 0.38 73 998.6
20260505113356 5 267 6.4 6.4 0.00 0.38 0.38 73 998.6
20260505112851 5 320 1.6 9.7 0.00 0.38 0.38 76 998.6
20260505112349 5 305 4.8 6.4 0.00 0.38 0.38 76 998.6
20260505111845 6 272 4.8 6.4 0.00 0.38 0.38 74 998.4
20260505111340 6 245 4.8 4.8 0.00 0.38 0.38 74 998.6
20260505110836 6 276 3.2 6.4 0.00 0.38 0.38 73 998.5
20260505110334 5 238 3.2 4.8 0.00 0.38 0.38 78 998.4
20260505101809 5 213 1.6 9.7 0.00 0.38 0.38 73 998.0
20260505101304 6 258 1.6 3.2 0.00 0.38 0.38 76 998.0
20260505100800 5 253 3.2 4.8 0.00 0.38 0.38 73 997.9
20260505100257 6 211 4.8 6.4 0.00 0.38 0.38 75 997.9
20260505095753 6 214 6.4 6.4 0.00 0.38 0.38 71 997.8
20260505095251 6 187 3.2 4.8 0.00 0.38 0.38 71 997.9
20260505094746 6 211 1.6 6.4 0.00 0.38 0.38 77 997.9
20260505094243 5 130 1.6 4.8 0.00 0.38 0.38 77 997.9
20260505093739 5 202 1.6 4.8 0.00 0.38 0.38 75 997.9
20260505093237 6 219 0.0 3.2 0.00 0.38 0.38 78 997.8
20260505092733 5 169 1.6 4.8 0.00 0.38 0.38 79 997.8
20260505092232 5 222 0.0 3.2 0.00 0.38 0.38 77 997.9
20260505091729 5 129 3.2 3.2 0.00 0.38 0.38 75 997.8
20260505091227 5 113 0.0 4.8 0.00 0.38 0.38 81 997.9
20260505090724 5 221 1.6 1.6 0.00 0.38 0.38 80 997.7
20260505090223 5 165 0.0 3.2 0.00 0.38 0.38 80 997.8
20260505085719 5 230 0.0 3.2 0.00 0.38 0.38 80 997.9
20260505085218 5 102 0.0 1.6 0.00 0.38 0.38 82 997.5
20260505084714 4 102 0.0 1.6 0.00 0.38 0.38 82 997.7
20260505084214 3 255 0.0 0.0 0.00 0.38 0.38 87 997.7
20260505083710 3 227 0.0 0.0 0.00 0.38 0.38 88 998.0
20260505083207 3 285 0.0 1.6 0.00 0.38 0.38 90 997.6
20260505082703 3 257 1.6 3.2 0.00 0.38 0.38 91 997.6
20260505082200 3 256 0.0 3.2 0.00 0.38 0.38 92 997.7
20260505081655 2 271 1.6 1.6 0.00 0.38 0.38 93 997.8
20260505081153 2 239 1.6 4.8 0.00 0.38 0.38 93 997.6
20260505080650 3 203 3.2 4.8 0.00 0.38 0.38 93 997.6
20260505080146 2 207 3.2 3.2 0.00 0.38 0.38 94 997.6
20260505075642 2 248 1.6 3.2 0.18 0.38 0.38 95 997.4
20260505075139 2 269 1.6 3.2 0.00 0.36 0.36 95 997.5
20260505074636 2 258 0.0 3.2 0.00 0.36 0.36 95 997.4
20260505074133 2 238 3.2 3.2 0.00 0.36 0.36 95 997.4
20260505073631 2 259 1.6 1.6 0.00 0.36 0.36 95 997.3
20260505073129 2 159 0.0 3.2 0.00 0.36 0.36 95 997.3
20260505072624 2 284 0.0 0.0 0.00 0.36 0.36 95 997.4
20260505072121 2 109 0.0 0.0 0.00 0.36 0.36 96 997.2
20260505071617 1 132 0.0 0.0 0.18 0.36 0.36 95 997.4
20260505071115 1 75 0.0 0.0 0.18 0.36 0.36 95 997.2